TIME,DELAY(SENSOR),PRES,OXYGEN,RAWTEMP,T(OPTODE),TCPHASE,FLUOR,BETA(BETA700),BETA(BETA412),BETA(BETA440),CDOM,C(CSC),ED(ED411.90),ED(ED443.80),ED(ED489.40),ED(ED554.70),LU(LU412.20),LU(LU443.80),LU(LU489.40),LU(LU555.00),COMP,TILTX,TILTY,CHECK
1341612928,5806,867.3699951171875000,182.9208984375000000,487.5877075195312500,8.2681617736816400,39.3498191833496100,52,110,104,80,75,15444,2147441627,2147798171,2147579090,2147826706,2147305389,2147448685,2147761051,2148273856,3218,6,14,62544
1341616524,5805,29.0000000000000000,222.3367004394531200,537.2293701171875000,6.7098808288574220,37.8212890625000000,51,109,103,81,76,15438,2147432283,2147800493,2147586578,2147836205,2147307968,2147443940,2147767241,2148275995,1097,6,15,25134
1341620124,5805,50.0000000000000000,231.0673065185547000,546.0474853515625000,6.4311962127685550,37.5064697265625000,51,107,104,79,77,15437,2147429001,2147799012,2147586459,2147839049,2147309165,2147442459,2147769124,2148281179,339,6,15,51292
1341623724,5804,9.6000003814697270,232.9031066894531200,547.0828857421875000,6.3984317779541020,37.4281501770019500,51,137,105,78,77,15433,2147427940,2147798116,2147585051,2147835218,2147308242,2147445750,2147771876,2148280484,3392,6,14,54518
1341627324,5805,9.3000001907348630,234.1000976562500000,548.5413818359375000,6.3522701263427730,37.3912391662597660,51,106,103,79,76,15431,2147430811,2147802358,2147586706,2147836763,2147310345,2147448804,2147769088,2148280100,568,6,15,25549
1341630924,5804,6.0000000000000000,235.8323974609375000,550.1359863281250000,6.3017768859863280,37.3297004699707000,51,105,102,78,76,15426,2147430326,2147804123,2147586121,2147833709,2147307236,2147439808,2147772288,2148283492,3549,6,15,1543
1341634524,5804,10.6000003814697270,236.0200958251953000,549.3939208984375000,6.3252792358398440,37.3066406250000000,51,106,102,78,74,15423,2147430765,2147800045,2147585737,2147834240,2147304731,2147447826,2147771309,2148279305,2743,6,15,46603
1341638124,5806,9.5000000000000000,236.7666931152343800,550.1060791015625000,6.3027248382568360,37.2803688049316400,51,106,104,79,76,15423,2147429257,2147799424,2147591414,2147836516,2147304265,2147441490,2147771410,2148282624,3471,6,15,46038
1341641724,5804,10.6999998092651370,236.2424011230468800,549.3814697265625000,6.3256697654724120,37.2951698303222660,51,107,104,79,76,15422,2147427766,2147803209,2147585106,2147836681,2147307675,2147446427,2147763995,2148277577,3267,6,15,8282
1341645324,5805,1049.0000000000000000,237.6896972656250000,550.8054809570312000,6.2805709838867190,37.2458992004394500,51,106,105,79,76,15382,2147430930,2147803328,2147586285,2147835894,2147305435,2147445056,2147771931,2148279433,3268,6,15,42776
1341648924,5804,9.3999996185302730,237.3152008056640600,550.5421752929688000,6.2889099121093750,37.2602310180664060,50,107,102,79,75,15370,2147427730,2147799972,2147589220,2147833883,2147308169,2147444736,2147772754,2148279341,15,6,14,38733
1341652524,5799,973.0000000000000000,237.7530975341797000,551.5471801757812000,6.2570738792419430,37.2560005187988300,51,107,103,78,75,15367,2147428562,2147797174,2147585179,2147831149,2147307712,2147445769,2147773211,2148277814,554,6,15,14726
1341656124,5802,9.3000001907348630,238.2006988525390600,551.6575927734375000,6.2535781860351560,37.2349586486816400,51,110,104,79,76,15369,2147429010,2147798372,2147587812,2147837522,2147308032,2147443044,2147770587,2148279963,307,6,15,64542
1341659724,5804,972.0000000000000000,240.3856964111328000,553.9962158203125000,6.1794619560241700,37.1651191711425800,51,107,104,78,76,15370,2147429869,2147799222,2147587675,2147832768,2147307757,2147440758,2147769654,2148280274,558,6,15,14725
1341663324,5808,10.8000001907348630,239.0386962890625000,552.7197265625000000,6.2199249267578125,37.2109985351562500,51,105,104,79,77,15365,2147431680,2147800301,2147586413,2147833069,2147306304,2147446509,2147772086,2148283940,67,6,14,33425
1341666924,5805,1016.0000000000000000,238.6873016357422000,552.6021728515625000,6.2236461639404300,37.2266883850097660,51,108,103,79,76,15367,2147428644,2147801974,2147587181,2147832402,2147305307,2147443364,2147767414,2148282761,900,6,15,34182
1341670524,5802,10.1999998092651370,240.6851043701172000,553.9038696289062000,6.1823878288269040,37.1485900878906250,50,107,104,79,77,15402,2147430052,2147800109,2147588608,2147834852,2147306112,2147445814,2147772608,2148279862,3165,6,15,60806
1341674124,5804,10.8999996185302730,238.5245056152343800,553.8187255859375000,6.1850910186767580,37.2573890686035160,50,108,102,78,77,15396,2147430848,2147799158,2147587611,2147835885,2147304502,2147443648,2147771894,2148282733,3282,6,15,33403
1341677724,5803,1013.0000000000000000,237.9004058837890600,551.5554809570312000,6.2568111419677730,37.2485008239746100,51,110,103,79,76,15399,2147429796,2147801243,2147587968,2147834368,2147304502,2147446125,2147770752,2148277421,604,6,14,6865
1341681324,5805,1054.0000000000000000,236.2001953125000000,550.5662231445312000,6.2881531715393070,37.3184204101562500,51,107,102,78,75,15398,2147430902,2147802651,2147586770,2147837257,2147303497,2147448713,2147770176,2148282715,40,6,15,52620
1341684924,5804,11.0000000000000000,235.4915924072265600,550.5662231445312000,6.2881507873535160,37.3550300598144500,50,107,103,78,76,15397,2147431936,2147801270,2147585216,2147835840,2147308187,2147441837,2147768082,2148280228,210,6,15,34606
1341688524,5805,1032.0000000000000000,235.8943939208984400,551.8668212890625000,6.2469501495361330,37.3582687377929700,50,107,104,77,78,15395,2147430427,2147800886,2147588370,2147833892,2147307785,2147444708,2147772571,2148281965,3178,6,15,64025
1341692124,5805,10.6999998092651370,238.5110015869140600,553.2448730468750000,6.2032761573791500,37.2475204467773440,51,110,104,78,75,15394,2147428982,2147799844,2147586806,2147836050,2147306688,2147443712,2147768246,2148279533,634,6,15,42736
1341695724,5805,1098.0000000000000000,238.7015991210937500,552.8488159179688000,6.2158322334289550,37.2309494018554700,51,105,104,79,76,15387,2147429732,2147802313,2147589997,2147835053,2147305353,2147444013,2147769810,2148283364,494,6,15,37876
1341699324,5806,11.3999996185302730,236.9459075927734400,552.0457153320312000,6.2412829399108890,37.3069801330566400,51,107,103,79,76,15393,2147433609,2147797714,2147585984,2147835346,2147304192,2147449353,2147765833,2148279753,124,6,14,36046
1341702924,5805,11.8000001907348630,239.0671997070312500,553.5880126953125000,6.1924037933349610,37.2257118225097660,51,108,104,78,76,15389,2147426486,2147801024,2147587712,2147835538,2147306569,2147445586,2147768109,2148284507,2809,6,15,7481
1341706524,5803,10.1999998092651370,238.9835968017578000,553.2998046875000000,6.2015380859375000,37.2240180969238300,51,108,110,80,77,15336,2147433124,2147801828,2147587081,2147835446,2147305920,2147446546,2147768877,2148280100,3264,6,15,53732
1341710124,5802,11.1999998092651370,239.8668975830078000,553.5598754882812000,6.1932930946350100,37.1836318969726560,51,106,103,78,77,15386,2147431104,2147800082,2147585545,2147834934,2147306706,2147449033,2147769600,2148282258,3087,6,15,10943
1341713724,5803,10.6999998092651370,240.3986968994140600,553.9957275390625000,6.1794781684875490,37.1650314331054700,51,107,104,79,76,15387,2147427126,2147795995,2147589238,2147834998,2147307529,2147443666,2147772736,2148282806,2862,6,15,10098
1341717324,5804,10.8999996185302730,240.1620941162109400,554.5518188476562000,6.1618499755859375,37.1871604919433600,51,109,104,78,77,15388,2147428361,2147801472,2147586230,2147837156,2147306368,2147446857,2147772900,2148282093,15,6,14,22488
1341720924,5803,1042.0000000000000000,240.0711975097656200,553.7858276367188000,6.1861338615417480,37.1778297424316400,51,108,106,79,75,15385,2147431862,2147802496,2147586770,2147835785,2147307968,2147449846,2147769188,2148284745,343,6,15,8200
1341724524,5802,11.6000003814697270,238.1058044433593800,552.5629882812500000,6.2248902320861820,37.2563514709472660,51,107,103,78,77,15383,2147430665,2147801718,2147587200,2147831817,2147303926,2147449206,2147769737,2148281965,3537,6,15,5613
1341728124,5805,11.0000000000000000,237.7794952392578000,553.0756835937500000,6.2086410522460940,37.2822113037109400,51,106,103,80,77,15385,2147427730,2147799296,2147586084,2147836178,2147301129,2147447168,2147768338,2148280813,116,6,15,15068
1341731724,5805,1001.0000000000000000,239.6911010742187500,554.8784790039062000,6.1514911651611330,37.2167205810546900,50,107,104,77,75,15382,2147427584,2147798848,2147586358,2147840749,2147303250,2147449865,2147770496,2148281792,354,6,15,6173
1341735324,5805,10.5000000000000000,240.4058990478515600,554.8663940429688000,6.1518750190734860,37.1804199218750000,50,109,102,79,77,15381,2147426249,2147801234,2147586834,2147833051,2147302948,2147448603,2147772105,2148281837,290,6,15,46251
1341738924,5802,1120.0000000000000000,241.8596954345703000,555.3325805664062000,6.1370887756347660,37.1147499084472660,51,112,103,79,77,15370,2147429750,2147802889,2147586980,2147832539,2147305088,2147445330,2147771913,2148277220,3186,6,15,54897
1341742524,5801,1009.0000000000000000,240.4873962402343800,555.5197753906250000,6.1311531066894530,37.1877899169921900,51,106,103,79,75,15372,2147427410,2147798646,2147588900,2147834752,2147303744,2147446637,2147771757,2148281526,3531,6,14,31912
1341746124,5803,11.1999998092651370,240.3432006835937500,554.6301269531250000,6.1593670845031740,37.1789283752441400,50,109,102,80,76,15373,2147426587,2147799469,2147584347,2147835282,2147307053,2147438409,2147771876,2148280338,410,6,15,51540
1341749724,5803,11.8000001907348630,240.1723022460937500,554.9768066406250000,6.1483731269836430,37.1938896179199200,51,106,104,79,76,15369,2147429083,2147797147,2147589010,2147836955,2147305965,2147445942,2147769965,2148280484,3000,6,15,41141
1341753324,5807,1180.0000000000000000,237.9768981933593800,553.9763793945312000,6.1800899505615230,37.2889595031738300,52,107,104,78,76,15367,2147429769,2147801755,2147586861,2147836324,2147308361,2147446866,2147772909,2148278701,91,6,15,36197
1341755456,5802,1174.0000000000000000,237.5543975830078000,553.4337158203125000,6.1972961425781250,37.3004112243652340,52,106,103,80,75,15368,2147428708,2147801033,2147586715,2147831588,2147307629,2147447762,2147769097,2148282358,143,6,15,31326
